User: anonymous   Login
Location: Oshawa
(43.9000°N, 78.8670°W)
Time: 18:48:03
(UTC-04:00)
Language:

Cosmos 1953 Rocket - Orbit

View from above orbital plane
View from above orbital plane
View from above satellite
View from above satellite

Ground track
Ground track

The orbit data is extracted from the following two-line orbital elements,

1 19211U 88050B   14298.78262851  .00000822  00000-0  98936-4 0  3847
2 19211 082.5292 025.1168 0023138 060.7860 088.1456 14.82506221423722
Epoch (UTC): 25 October 2014 18:46:59
Eccentricity: 0.0023138
inclination: 82.5292°
perigee height: 605 km
apogee height: 637 km
right ascension of ascending node: 25.1168°
argument of perigee: 60.7860°
revolutions per day: 14.82506221
mean anomaly at epoch: 88.1456°
orbit number at epoch: 42372

The dashed part of the orbit path shows where the satellite is in the earth's shadow,  

DLR